TimePDT,TemperatureF,Dew PointF,Humidity,Sea Level PressureIn,VisibilityMPH,Wind Direction,Wind SpeedMPH,Gust SpeedMPH,PrecipitationIn,Events,Conditions,WindDirDegrees,DateUTC
12:55 AM,41.0,35.1,79,30.16,10.0,Calm,Calm,-,N/A,,Clear,0,2012-10-06 07:55:00
1:55 AM,48.9,33.1,54,30.16,10.0,SE,5.8,-,N/A,,Clear,130,2012-10-06 08:55:00
2:55 AM,48.0,35.1,61,30.16,10.0,Calm,Calm,-,N/A,,Clear,0,2012-10-06 09:55:00
3:55 AM,50.0,35.1,57,30.15,10.0,SSE,5.8,-,N/A,,Clear,160,2012-10-06 10:55:00
4:55 AM,46.9,34.0,61,30.15,10.0,Variable,3.5,-,N/A,,Clear,0,2012-10-06 11:55:00
5:55 AM,46.9,37.9,71,30.15,10.0,ESE,4.6,-,N/A,,Clear,110,2012-10-06 12:55:00
6:55 AM,45.0,35.1,68,30.15,10.0,ESE,4.6,-,N/A,,Clear,120,2012-10-06 13:55:00
7:55 AM,42.1,36.0,79,30.16,10.0,Calm,Calm,-,N/A,,Clear,0,2012-10-06 14:55:00
8:55 AM,51.1,39.9,66,30.16,10.0,ESE,4.6,-,N/A,,Clear,120,2012-10-06 15:55:00
9:55 AM,57.9,39.9,51,30.16,10.0,NE,11.5,-,N/A,,Clear,50,2012-10-06 16:55:00
10:55 AM,63.0,39.9,43,30.15,10.0,ENE,9.2,-,N/A,,Clear,60,2012-10-06 17:55:00
11:55 AM,66.9,34.0,30,30.14,8.0,ENE,12.7,-,N/A,,Clear,70,2012-10-06 18:55:00
12:55 PM,71.1,34.0,26,30.12,10.0,ENE,15.0,-,N/A,,Clear,70,2012-10-06 19:55:00
1:55 PM,71.1,37.0,29,30.10,10.0,NE,13.8,-,N/A,,Clear,50,2012-10-06 20:55:00
2:48 PM,73.4,30.2,20,30.09,7.0,ENE,19.6,-,N/A,,Partly Cloudy,60,2012-10-06 21:48:00
2:55 PM,73.4,30.2,20,30.08,9.0,ENE,17.3,-,N/A,,Clear,70,2012-10-06 21:55:00
3:55 PM,73.9,28.9,19,30.07,8.0,ENE,16.1,-,N/A,,Clear,60,2012-10-06 22:55:00
4:55 PM,72.0,36.0,27,30.06,10.0,NE,12.7,-,N/A,,Clear,50,2012-10-06 23:55:00
5:55 PM,70.0,35.1,28,30.04,10.0,ENE,9.2,-,N/A,,Clear,60,2012-10-07 00:55:00
6:55 PM,64.0,37.9,38,30.04,10.0,ENE,6.9,-,N/A,,Clear,70,2012-10-07 01:55:00
7:55 PM,60.1,37.9,44,30.05,10.0,NE,9.2,-,N/A,,Clear,50,2012-10-07 02:55:00
8:55 PM,57.0,39.9,53,30.04,10.0,Calm,Calm,-,N/A,,Clear,0,2012-10-07 03:55:00
9:55 PM,51.1,39.0,63,30.04,10.0,ESE,4.6,-,N/A,,Clear,120,2012-10-07 04:55:00
10:55 PM,46.9,37.9,71,30.04,10.0,Calm,Calm,-,N/A,,Clear,0,2012-10-07 05:55:00
11:55 PM,44.1,37.9,79,30.04,10.0,Calm,Calm,-,N/A,,Clear,0,2012-10-07 06:55:00